SWISSCUBE

Last updated on Thu Oct 30 2025 00:03:10 GMT+0000 (Coordinated Universal Time)

1 35932U 09051B 25302.48592840 .00001832 00000+0 37712-3 0 9995 2 35932 98.4138 201.2789 0005998 201.7068 158.3879 14.61755523855447
UTC large
Height (km)
Speed (km/s)
/
Latitude / Longitude
Inclination (degrees)
Orbital Period (minutes)
Azimuth
Elevation
Range (km)
Doppler Factor

Next 0 passes for location: London (51.5072 / 0.1276)

Sorry there are no passes over London.